Погода в Арките

Россия / Республика Дагестан     41°56′49″N   48°00′50″E
темп.,
°C
ветер,
м/с
пор.,
м/с
влажн.,
%
обл.,
%
осадки,
мм/ч
давл.,
гПа
погр.,
м
18 мая, ср
ср1800:00+10юз327770 0.0 101616
03:00+10зюз33716 0.0 101619
06:00+13ссз127250 0.0 1017151
09:00+15св326555 0.1 10171049
12:00+16всв3363100 0.1 10161099
15:00+16вюв346391 0.1 10141030
18:00+15юв46710 0.0 1013343
21:00+11ююз22830 0.0 101411
19 мая, чт
чт1900:00+11зюз22680 0.0 101312
03:00+12зюз22520 0.0 101111
06:00+16зюз22540 0.0 101131
09:00+20ссв22470 0.0 1012426
12:00+22ссв33480 0.0 1012759
15:00+20с44603 0.0 1012626
18:00+16с237689 0.0 1013188
21:00+14зюз228496 0.0 101411
20 мая, пт
пт2000:00+12сз1190100 0.0 101416
03:00+12св2290100 0.4 101469
06:00+9ссв3492100 0.0 1017391
09:00+7ссв2386100 0.2 1019463
12:00+9юв1179100 0.0 1019381
15:00+12юв1170100 0.4 1018677
18:00+10з2386100 1.8 1019172
21:00+9зюз3382100 4.1 102043
21 мая, сб
сб2100:00+9юз3381100 0.4 101932
03:00+9юз227291 0.4 101817
06:00+11ююв2370100 0.0 1019125
09:00+14юв455632 0.0 10181316
12:00+15вюв5656100 0.4 10171497
15:00+13вюв476734 0.4 1016760
18:00+13юв68650 0.0 1014519
21:00+9ююз22710 0.0 101314
22 мая, вс
вс2200:00+10зюз3252100 0.0 101116
03:00+11з3339100 0.0 101026
06:00+14зюз11515 0.0 101144
09:00+18св43440 0.0 10111625
12:00+17всв445878 0.0 10111187
15:00+15вюв4568100 0.0 1011976
18:00+14юв577265 0.0 1010763
21:00+9ю33900 0.0 100946